Regional Weather Roundup
Issued by NWS

Home | Current Version | Previous Version | Graphics & Text | Print | Product List | Glossary On
Versions: 1 2 3 4 5 6 7 8 9 10 11 12 13 14 15 16 17 18 19 20 21 22 23 24 25 26 27 28 29 30 31 32 33 34 35 36 37 38 39 40 41 42 43 44 45 46 47 48 49 50
000
ASUS43 KIND 031609
RWRIN

WEATHER ROUNDUP FOR INDIANA
NATIONAL WEATHER SERVICE INDIANAPOLIS IN
1100 AM EST TUE MAR 03 2015

NOTE: "FAIR" INDICATES FEW OR NO CLOUDS BELOW 12,000 FEET WITH NO
SIGNIFICANT WEATHER AND/OR OBSTRUCTIONS TO VISIBILITY.

* - STATION DOES NOT REPORT WEATHER SUCH AS PRECIPITATION OR FOG.

+ - STATION NOT QUALITY CONTROLLED BY THE NATIONAL WEATHER SERVICE.
    USE DATA WITH CAUTION...ESPECIALLY DEWPOINT AND RELATIVE
    HUMIDITY OBSERVATIONS.

INZ001>003-010>013-019-020-031700-
NORTHWEST INDIANA

CITY           SKY/WX    TMP DP  RH WIND       PRES   REMARKS
GARY /AIRPORT/ LGT RAIN  32  27  80 S17       29.75F WCI  21
KNOX *+          N/A     30  23  74 S15G21    29.79F WCI  19
LA PORTE +     DRIZZLE   31  30  98 S15G22    29.75F WCI  20
MICHIGAN CITY+ MIX PCPN  30  27  86 S15G22    29.75F WCI  19
MONTICELLO +   MIX PCPN  29  28  95 SE8       29.82F WCI  21
RENSSELAER +   MIX PCPN  32  32 100 S16       29.78F WCI  21
VALPARAISO     FRZ RAIN  29  28  96 S18G25    29.76F FOG     WCI  16

$$

LMZ046-743>745-031700-
SOUTHERN LAKE MICHIGAN

STATION/POSITION TIME  TEMP WIND        PRES
                       AIR  DIR/SP/G
                 (UTC) (F)  (DEG/KT/KT) (MB)
MICHIGAN CITY    1600   29  140/ 13/ 20   N/A

$$

INZ004-005-014>016-021>024-031700-
NORTH CENTRAL INDIANA

CITY           SKY/WX    TMP DP  RH WIND       PRES   REMARKS
ELKHART        DRIZZLE   28  25  86 SE14G23   29.80F WCI  17
GOSHEN         FRZ RAIN  28  24  85 SE16      29.84F FOG     WCI  16
LOGANSPORT +   CLOUDY    30  28  93 SE13      29.86F FOG     WCI  20
PERU/GRISSOM   FRZ RAIN  30  27  90 S3        29.83F
ROCHESTER +    MIX PCPN  32  32 100 S10G18    29.83F WCI  24
SOUTH BEND     FRZ RAIN  29  25  85 SE18G28   29.78F FOG     WCI  16
WARSAW +       MIX PCPN  28  27  93 S7        29.85F WCI  21

$$

INZ006>009-017-018-025>027-031700-
NORTHEAST INDIANA

CITY           SKY/WX    TMP DP  RH WIND       PRES   REMARKS
ANGOLA *+      CLOUDY    25  21  86 S12       29.85F WCI  14
AUBURN +       CLOUDY    28  25  86 SE7G16    29.89F FOG     WCI  21
FORT WAYNE     FRZ RAIN  28  25  88 SE13      29.88F FOG     WCI  17
HUNTINGTON +   MIX PCPN  28  24  82 S8        29.87F WCI  20

$$

INZ028-029-035-036-043>045-051>053-031700-
WEST CENTRAL INDIANA

CITY           SKY/WX    TMP DP  RH WIND       PRES   REMARKS
CRAWFORDSVL +  CLOUDY    30  26  86 S7        29.84F FOG     WCI  23
GREENCASTLE +  CLOUDY    32  30  93 CALM      29.89R FOG
LAFAYETTE      CLOUDY    30  28  92 S9        29.83F FOG     WCI  22
TERRE HAUTE    LGT RAIN  34  32  92 S15       29.87F FOG     WCI  24

$$

INZ030>032-037>040-046>048-054>057-064-065-031700-
CENTRAL INDIANA

CITY           SKY/WX    TMP DP  RH WIND       PRES   REMARKS
CP ATTERBURY + RAIN      32  30  93 S10       29.90F WCI  24
COLUMBUS       LGT RAIN  32  28  86 S14G21    29.91F FOG     WCI  22
FRANKFORT +    DRIZZLE   32  32 100 SE7       29.85F WCI  26
GREENWOOD *+   CLOUDY    30  27  86 S10       29.88F WCI  21
INDIANAPOLIS   FRZ RAIN  30  28  92 S8        29.87S FOG     WCI  22
-EAGLE CREEK   FRZ RAIN  30  29  96 S6        29.87R FOG     WCI  24
KOKOMO *+      CLOUDY    30  27  86 S15       29.86F WCI  19
MARION +       MIX PCPN  30  27  89 S8        29.87F WCI  22
MT COMFORT *+  CLOUDY    30  30 100 S13G20    29.87F WCI  20
SHELBYVILLE    FRZ RAIN  34  29  82 S20       29.88F WCI  23
ZIONSVILLE +   MIX PCPN  31  27  84 S7        29.88S WCI  25

$$

INZ033-034-041-042-049-050-058-059-031700-
EAST CENTRAL INDIANA

CITY           SKY/WX    TMP DP  RH WIND       PRES   REMARKS
MUNCIE         FRZ RAIN  30  27  88 S10G21    29.84F FOG     WCI  21

$$

INZ060-061-067>069-081>083-085>088-031700-
SOUTHWEST INDIANA

CITY           SKY/WX    TMP DP  RH WIND       PRES   REMARKS
EVANSVILLE     CLOUDY    43  40  89 S13       29.94F FOG
HUNTINGBURG *+ CLOUDY    39  36  87 S14       29.95F
WASHINGTON +   CLOUDY    37  34  88 S16       29.90F FOG

$$

INZ062-063-066-070>080-084-089>092-031700-
SOUTH CENTRAL AND SOUTHEAST INDIANA

CITY           SKY/WX    TMP DP  RH WIND       PRES   REMARKS
BLOOMINGTON    HVY RAIN  33  31  92 S9        29.89F FOG     WCI  25
NORTH VERNON + LGT RAIN  34  34 100 SE8       29.94F WCI  27
SEYMOUR +      CLOUDY    34  30  86 S12       29.93F FOG     WCI  25

$$



USA.gov is the U.S. government's official web portal to all federal, state and local government web resources and services.